When you browse on this site, cookies collect data to enhance your experience and personalize the content and advertising you see.
Visit our Privacy Policy to learn more. By continuing to use the site, you agree to this use of cookies and data.
  • în România
  • Lista ţărilor
  • Pe 7 zile
  • Temperatura apei
  • Hartă satelitară
  • Meteo pe hartă
  • Widget-uri
  • user-avatar
    Intrare

    Meteo pe oră la Snopovo

    Astăzi, 23 Iulie, Marţi

    Timp Temperatura Precipitaţii Vânt Presiune Umiditate
    00:00 +16°C° 0 mm 1 m/s 748 mmHg 84%
    01:00 +16°C° 0 mm 1 m/s 748 mmHg 87%
    02:00 +15°C° 0 mm 1 m/s 748 mmHg 89%
    03:00 +15°C° 0 mm 1 m/s 748 mmHg 89%
    04:00 +15°C° 0 mm 1 m/s 748 mmHg 90%
    05:00 +15°C° 0 mm 1 m/s 748 mmHg 90%
    06:00 +17°C° 0 mm 2 m/s 748 mmHg 86%
    07:00 +18°C° 0 mm 2 m/s 748 mmHg 82%
    08:00 +19°C° 0 mm 2 m/s 748 mmHg 77%
    09:00 +21°C° 0.1 mm 2 m/s 748 mmHg 71%
    10:00 +22°C° 0.1 mm 3 m/s 748 mmHg 65%
    11:00 +24°C° 0.1 mm 3 m/s 748 mmHg 59%
    12:00 +24°C° 0.2 mm 3 m/s 748 mmHg 59%
    13:00 +25°C° 0.2 mm 3 m/s 748 mmHg 60%
    14:00 +25°C° 0.2 mm 3 m/s 748 mmHg 60%
    15:00 +24°C° 0.2 mm 3 m/s 748 mmHg 63%
    16:00 +24°C° 0.2 mm 3 m/s 748 mmHg 65%
    17:00 +24°C° 0.2 mm 3 m/s 748 mmHg 67%
    18:00 +21°C° 0.2 mm 3 m/s 748 mmHg 74%
    19:00 +19°C° 0.2 mm 2 m/s 748 mmHg 81%
    20:00 +18°C° 0.2 mm 2 m/s 748 mmHg 88%
    21:00 +17°C° 0 mm 2 m/s 748 mmHg 89%
    22:00 +16°C° 0 mm 2 m/s 748 mmHg 91%
    23:00 +15°C° 0 mm 1 m/s 749 mmHg 92%

    Mâine, 24 Iulie, Miercuri

    Timp Temperatura Precipitaţii Vânt Presiune Umiditate
    00:00 +15°C° 0 mm 1 m/s 749 mmHg 93%
    01:00 +14°C° 0 mm 2 m/s 749 mmHg 93%
    02:00 +14°C° 0 mm 2 m/s 749 mmHg 93%
    03:00 +13°C° 0 mm 2 m/s 749 mmHg 93%
    04:00 +13°C° 0 mm 2 m/s 749 mmHg 92%
    05:00 +13°C° 0 mm 2 m/s 749 mmHg 92%
    06:00 +15°C° 0 mm 2 m/s 749 mmHg 85%
    07:00 +17°C° 0 mm 2 m/s 750 mmHg 78%
    08:00 +18°C° 0 mm 2 m/s 750 mmHg 70%
    09:00 +20°C° 0 mm 3 m/s 750 mmHg 63%
    10:00 +21°C° 0 mm 4 m/s 750 mmHg 57%
    11:00 +23°C° 0 mm 4 m/s 750 mmHg 50%
    12:00 +23°C° 0 mm 4 m/s 750 mmHg 50%
    13:00 +23°C° 0 mm 5 m/s 750 mmHg 50%
    14:00 +23°C° 0 mm 5 m/s 750 mmHg 51%
    15:00 +22°C° 0 mm 5 m/s 750 mmHg 53%
    16:00 +22°C° 0 mm 4 m/s 750 mmHg 56%
    17:00 +21°C° 0 mm 4 m/s 750 mmHg 58%
    18:00 +19°C° 0 mm 3 m/s 750 mmHg 66%
    19:00 +17°C° 0 mm 3 m/s 750 mmHg 73%
    20:00 +16°C° 0 mm 2 m/s 750 mmHg 81%
    21:00 +15°C° 0 mm 2 m/s 750 mmHg 84%
    22:00 +14°C° 0 mm 2 m/s 750 mmHg 87%
    23:00 +13°C° 0 mm 2 m/s 750 mmHg 91%

    Poimâine, 25 Iulie, Joi

    Timp Temperatura Precipitaţii Vânt Presiune Umiditate
    00:00 +13°C° 0 mm 2 m/s 750 mmHg 92%
    01:00 +12°C° 0 mm 2 m/s 750 mmHg 93%
    02:00 +10°C° 0 mm 2 m/s 749 mmHg 95%
    03:00 +12°C° 0 mm 2 m/s 749 mmHg 95%
    04:00 +11°C° 0 mm 3 m/s 749 mmHg 94%
    05:00 +11°C° 0 mm 3 m/s 749 mmHg 94%
    06:00 +11°C° 0.7 mm 3 m/s 749 mmHg 95%
    07:00 +12°C° 0.7 mm 3 m/s 749 mmHg 96%
    08:00 +12°C° 0.7 mm 3 m/s 749 mmHg 97%
    09:00 +12°C° 1.7 mm 3 m/s 749 mmHg 98%
    10:00 +14°C° 1.7 mm 2 m/s 749 mmHg 98%
    11:00 +14°C° 1.7 mm 2 m/s 749 mmHg 98%
    12:00 +16°C° 0 mm 1 m/s 749 mmHg 92%
    13:00 +19°C° 0 mm 1 m/s 749 mmHg 85%
    14:00 +21°C° 0 mm 1 m/s 749 mmHg 79%
    15:00 +22°C° 0.1 mm 1 m/s 750 mmHg 78%
    16:00 +21°C° 0.1 mm 2 m/s 750 mmHg 78%
    17:00 +23°C° 0.1 mm 2 m/s 750 mmHg 77%
    18:00 +21°C° 0.3 mm 2 m/s 750 mmHg 83%
    19:00 +20°C° 0.3 mm 2 m/s 750 mmHg 89%
    20:00 +19°C° 0.3 mm 2 m/s 750 mmHg 95%
    21:00 +18°C° 0.1 mm 2 m/s 751 mmHg 96%
    22:00 +18°C° 0.1 mm 2 m/s 751 mmHg 97%
    23:00 +17°C° 0.1 mm 2 m/s 751 mmHg 98%

    26 Iulie, Vineri

    Timp Temperatura Precipitaţii Vânt Presiune Umiditate
    00:00 +17°C° 0 mm 2 m/s 752 mmHg 98%
    01:00 +17°C° 0 mm 2 m/s 752 mmHg 98%
    02:00 +17°C° 0 mm 2 m/s 752 mmHg 98%
    03:00 +17°C° 0 mm 2 m/s 753 mmHg 98%
    04:00 +17°C° 0 mm 2 m/s 753 mmHg 98%
    05:00 +17°C° 0 mm 2 m/s 753 mmHg 98%
    06:00 +18°C° 0 mm 3 m/s 753 mmHg 93%
    07:00 +19°C° 0 mm 3 m/s 753 mmHg 88%
    08:00 +20°C° 0 mm 4 m/s 753 mmHg 83%
    09:00 +22°C° 0 mm 4 m/s 754 mmHg 75%
    10:00 +25°C° 0 mm 4 m/s 754 mmHg 67%
    11:00 +27°C° 0 mm 4 m/s 754 mmHg 58%
    12:00 +27°C° 0 mm 4 m/s 754 mmHg 57%
    13:00 +28°C° 0 mm 4 m/s 753 mmHg 56%
    14:00 +29°C° 0 mm 4 m/s 753 mmHg 54%
    15:00 +28°C° 0 mm 3 m/s 753 mmHg 57%
    16:00 +28°C° 0 mm 3 m/s 753 mmHg 59%
    17:00 +28°C° 0 mm 3 m/s 753 mmHg 61%
    18:00 +26°C° 0 mm 3 m/s 753 mmHg 69%
    19:00 +25°C° 0 mm 2 m/s 753 mmHg 76%
    20:00 +23°C° 0 mm 2 m/s 753 mmHg 83%
    21:00 +21°C° 0 mm 2 m/s 753 mmHg 86%
    22:00 +20°C° 0 mm 2 m/s 753 mmHg 88%
    23:00 +19°C° 0 mm 2 m/s 753 mmHg 91%

    27 Iulie, Sâmbătă

    Timp Temperatura Precipitaţii Vânt Presiune Umiditate
    00:00 +19°C° 0 mm 2 m/s 753 mmHg 92%
    01:00 +19°C° 0 mm 1 m/s 753 mmHg 93%
    02:00 +19°C° 0 mm 1 m/s 753 mmHg 93%
    03:00 +19°C° 0 mm 1 m/s 753 mmHg 93%
    04:00 +19°C° 0 mm 1 m/s 753 mmHg 92%
    05:00 +19°C° 0 mm 1 m/s 753 mmHg 91%
    06:00 +21°C° 0 mm 1 m/s 753 mmHg 86%
    07:00 +22°C° 0 mm 1 m/s 753 mmHg 81%
    08:00 +24°C° 0 mm 1 m/s 753 mmHg 76%
    09:00 +25°C° 0.1 mm 2 m/s 753 mmHg 71%
    10:00 +27°C° 0.1 mm 2 m/s 753 mmHg 65%
    11:00 +28°C° 0.1 mm 3 m/s 752 mmHg 60%
    12:00 +29°C° 0.1 mm 3 m/s 752 mmHg 57%
    13:00 +29°C° 0.1 mm 4 m/s 752 mmHg 53%
    14:00 +30°C° 0.1 mm 4 m/s 751 mmHg 50%
    15:00 +29°C° 0 mm 4 m/s 751 mmHg 52%
    16:00 +29°C° 0 mm 3 m/s 751 mmHg 54%
    17:00 +28°C° 0 mm 3 m/s 751 mmHg 56%
    18:00 +26°C° 0 mm 3 m/s 750 mmHg 64%
    19:00 +24°C° 0 mm 2 m/s 750 mmHg 72%
    20:00 +22°C° 0 mm 1 m/s 750 mmHg 81%
    21:00 +22°C° 0 mm 1 m/s 750 mmHg 83%
    22:00 +21°C° 0 mm 1 m/s 750 mmHg 85%
    23:00 +20°C° 0 mm 1 m/s 750 mmHg 87%

    28 Iulie, Duminică

    Timp Temperatura Precipitaţii Vânt Presiune Umiditate
    00:00 +19°C° 0 mm 2 m/s 750 mmHg 88%
    01:00 +19°C° 0 mm 2 m/s 750 mmHg 89%
    02:00 +18°C° 0 mm 2 m/s 749 mmHg 90%
    03:00 +18°C° 0 mm 2 m/s 749 mmHg 92%
    04:00 +18°C° 0 mm 3 m/s 750 mmHg 93%
    05:00 +18°C° 0 mm 3 m/s 750 mmHg 94%
    06:00 +19°C° 0 mm 3 m/s 750 mmHg 89%
    07:00 +19°C° 0 mm 4 m/s 750 mmHg 83%
    08:00 +19°C° 0 mm 4 m/s 750 mmHg 78%
    09:00 +19°C° 0 mm 4 m/s 751 mmHg 73%
    10:00 +20°C° 0 mm 4 m/s 751 mmHg 68%
    11:00 +20°C° 0 mm 4 m/s 752 mmHg 63%
    12:00 +20°C° 0 mm 4 m/s 752 mmHg 57%
    13:00 +21°C° 0 mm 4 m/s 752 mmHg 52%
    14:00 +22°C° 0 mm 4 m/s 752 mmHg 47%
    15:00 +21°C° 0 mm 4 m/s 752 mmHg 47%
    16:00 +21°C° 0 mm 4 m/s 752 mmHg 47%
    17:00 +21°C° 0 mm 3 m/s 752 mmHg 48%
    18:00 +19°C° 0 mm 3 m/s 752 mmHg 56%
    19:00 +17°C° 0 mm 2 m/s 752 mmHg 64%
    20:00 +15°C° 0 mm 2 m/s 752 mmHg 72%
    21:00 +14°C° 0 mm 2 m/s 753 mmHg 74%
    22:00 +13°C° 0 mm 1 m/s 753 mmHg 75%
    23:00 +12°C° 0 mm 1 m/s 753 mmHg 76%
    Arată mai mult